#timestamp,LO_Frequency,Hit,StdDev 
1524416415.6,286047002.5,N
1524416435.4,286046998.5,N
1524416455.2,286046999.3,N
1524416475.1,286046997.0,N
1524416476.0,286046997.0,N
1524416495.8,286046997.7,N
1524416515.7,286046996.7,N
1524416535.5,286046999.5,N
1524416555.3,286046999.1,N
1524416575.2,286046998.3,N
1524416595.0,286047000.8,N
1524416595.9,286047000.8,N
1524416615.8,286047001.0,N
1524416635.6,286047000.8,N
1524416655.4,286046999.7,N
1524416675.3,286047002.4,N
1524416695.1,286047002.0,N
1524416715.8,286047000.1,N
1524416735.7,286047002.3,N
1524416755.5,286047002.8,N
1524416775.4,286047004.2,N
1524416795.2,286046999.8,N
1524416815.0,286047000.4,N
1524416815.9,286047000.4,N
1524416835.8,286047002.6,N
1524416855.6,286047002.7,N
1524416875.4,286046999.7,N
1524416895.3,286047002.8,N
1524416915.1,286047002.6,N
1524416935.9,286046999.9,N
1524416955.7,286046999.7,N
1524416975.5,286047002.8,N
1524416995.4,286047000.7,N
1524417015.2,286047000.2,N
1524417035.0,286046998.2,N
1524417036.0,286046998.2,N
1524417055.8,286046998.2,N
1524417075.6,286046999.0,N
1524417095.5,286046999.5,N
1524417115.3,286046999.0,N
1524417135.1,286046998.2,N
1524417155.9,286046998.5,N
1524417175.7,286046999.9,N
1524417195.6,286046999.7,N
1524417215.4,286047000.2,N
1524417235.2,286047001.2,N
1524417255.1,286047000.4,N
1524417256.0,286047000.4,N
1524417275.8,286047000.6,N
1524417295.6,286047000.9,N
1524417315.5,286047001.9,N
1524417335.3,286047002.0,N
1524417355.2,286047001.6,N
1524417375.9,286047001.5,N
1524417395.7,286047003.8,N
1524417415.6,286047003.3,N
1524417435.4,286047003.3,N
1524417455.3,286047003.4,N
1524417475.1,286047004.1,N
1524417476.0,286047004.1,N
1524417495.8,286047003.1,N
1524417515.7,286047006.0,Y
1524417535.5,286047005.8,P
1524417555.3,286047003.1,N
1524417575.2,286047003.7,N
1524417595.0,286047004.0,N
1524417595.9,286047004.0,N
1524417615.8,286047003.8,N
1524417635.6,286047001.8,N
1524417655.4,286047004.2,N
1524417675.3,286047003.6,N
1524417695.1,286047003.9,Y
1524417715.9,286046998.2,P
1524417735.7,286046999.5,N
1524417755.5,286046999.1,N
1524417775.4,286046996.9,N
1524417795.2,286046999.2,N
1524417815.0,286046999.2,N
1524417815.9,286046999.2,N
1524417835.8,286046996.7,N
1524417855.6,286046997.3,N
1524417875.5,286046996.8,N
1524417895.3,286046997.8,N
1524417915.1,286046995.1,N
1524417935.9,286046997.5,N
1524417955.7,286046997.7,N
1524417975.5,286046995.8,N
1524417995.4,286046993.6,Y
1524418015.2,286046995.4,P
1524418035.1,286046995.9,P
1524418036.0,286046995.9,P
1524418055.8,286046995.9,Y
1524418075.6,286046999.3,P
1524418095.5,286046998.1,N
1524418115.3,286047001.1,N
1524418135.1,286046999.1,N
1524418155.9,286046998.8,N
1524418175.7,286046998.7,N
1524418195.6,286046998.7,N
1524418215.4,286046998.5,N
1524418235.2,286047001.1,N
1524418255.1,286047000.7,N
1524418256.0,286047000.7,N
1524418275.8,286047001.1,N
1524418295.7,286046998.6,N
1524418315.5,286047000.7,N
1524418335.3,286046999.3,N
1524418355.2,286046999.6,N
1524418375.9,286046999.2,N
1524418395.7,286046999.4,N
1524418415.6,286046996.7,N
1524418435.4,286046999.6,N
1524418455.3,286046996.8,N
1524418475.1,286046997.1,N
1524418476.0,286046997.1,N
1524418495.8,286046997.3,N
1524418515.7,286046997.1,N
1524418535.5,286046997.4,N
1524418555.4,286046997.3,N
1524418575.2,286046997.4,N
1524418595.0,286046997.3,N
1524418595.9,286046997.3,N
1524418615.8,286046995.1,Y
1524418635.6,286046996.8,P
1524418655.4,286046996.5,P
1524418675.3,286046997.2,N
1524418695.1,286046997.5,N
1524418715.9,286046997.7,Y
1524418735.7,286047001.2,P
1524418755.5,286047001.1,N
1524418775.4,286047000.6,N
1524418795.2,286046998.3,N
1524418815.1,286046998.6,N
1524418816.0,286046998.6,N
1524418835.8,286046998.8,N
1524418855.6,286046998.4,N
1524418875.5,286046998.8,N
1524418895.3,286046999.1,N
1524418915.2,286046996.7,N
1524418935.9,286046997.1,N
1524418955.7,286046997.5,N
1524418975.6,286046997.2,N
1524418995.4,286046996.9,N
1524419015.3,286046996.5,N
1524419035.1,286046999.0,N
1524419036.0,286046999.0,N
1524419055.8,286046998.7,N
1524419075.7,286046998.6,N
1524419095.5,286046999.3,N
1524419115.3,286047001.2,N
1524419135.2,286047001.2,N
1524419155.0,286046998.6,N
1524419155.9,286046998.6,N
1524419175.8,286046998.9,N
1524419195.6,286046998.5,N
1524419215.4,286047001.0,N
1524419235.3,286047001.2,N
1524419255.1,286047000.2,N
1524419275.9,286047000.4,N
1524419295.7,286047000.6,N
1524419315.5,286046999.8,N
1524419335.4,286047000.0,N
1524419355.2,286047000.8,N
1524419375.1,286046998.1,N
1524419376.0,286046998.1,N
1524419395.8,286047000.5,N
1524419415.6,286046998.1,N
1524419435.5,286047001.1,N
1524419455.3,286046999.2,N
1524419475.1,286046999.5,N
1524419495.9,286046998.9,N
1524419515.7,286046996.5,N
1524419535.6,286046997.0,N
1524419555.4,286046996.8,N
1524419575.2,286046999.1,N
1524419595.1,286046997.0,N
1524419596.0,286046997.0,N
1524419615.8,286046999.0,N
1524419635.7,286046998.2,N
1524419655.5,286047000.0,N
1524419675.3,286046998.6,N
1524419695.2,286046999.0,N
1524419715.0,286046999.2,N
1524419715.9,286046999.2,N
1524419735.7,286046999.0,N
1524419755.6,286046998.9,N
1524419775.4,286046999.4,N
1524419795.3,286046999.1,N
1524419815.1,286046999.6,N
1524419816.0,286046999.6,N
1524419835.8,286046996.9,N
1524419855.7,286046999.6,N
1524419875.5,286046996.6,N
1524419895.4,286046996.5,N
1524419915.2,286046998.8,N
1524419935.0,286046998.2,N
1524419935.9,286046998.2,N
1524419955.8,286046998.4,N
1524419975.6,286046998.6,N
1524419995.4,286046998.1,N
